Weather reports worldwide

Advertisment
Santon Downham, United Kingdom (99118): temperature & dewpoint: 15.01.2021 04:00:00 - 21.01.2021 04:00:00 (GMT)Santon Downham, United Kingdom (99118): temperature -20cm & temperature -100cm: 15.01.2021 04:00:00 - 21.01.2021 04:00:00 (GMT)Santon Downham, United Kingdom (99118): precipitation: 15.01.2021 04:00:00 - 21.01.2021 04:00:00 (GMT)
Date & Time tt [°C] td [°C] tt -20cm [°C] tt -100cm [°C] rr [mm]
21.01.2021 04:00:00 4,1 1,3 - - 0,0
21.01.2021 03:00:00 3,5 1,9 - - 0,4
21.01.2021 02:00:00 3,4 1,9 - - 0,0
21.01.2021 01:00:00 7,1 5,4 - - 2,0
21.01.2021 00:00:00 8,6 7,3 - - 0,0
20.01.2021 23:00:00 9,4 6,4 - - 0,0
20.01.2021 22:00:00 9,6 6,4 - - 0,0
20.01.2021 21:00:00 9,6 6,5 - - 0,0
20.01.2021 20:00:00 9,9 7,2 - - 0,0
20.01.2021 19:00:00 9,7 7,1 - - 0,0
20.01.2021 18:00:00 9,8 7,0 - - 0,0
20.01.2021 17:00:00 10,4 6,9 - - 0,0
20.01.2021 16:00:00 10,6 7,4 - - 0,0
20.01.2021 15:00:00 10,2 7,9 - - 0,0
20.01.2021 14:00:00 10,4 7,8 - - 0,0
20.01.2021 13:00:00 10,6 8,3 - - 0,0
20.01.2021 12:00:00 10,8 8,3 - - 0,0
20.01.2021 11:00:00 10,6 8,3 - - 0,2
20.01.2021 10:00:00 10,7 8,4 - - 0,0
20.01.2021 09:00:00 11,1 8,6 6,0 7,0 0,0
20.01.2021 08:00:00 11,2 8,4 - - 0,0
20.01.2021 07:00:00 11,1 8,5 - - 0,0
20.01.2021 06:00:00 11,2 8,8 - - 0,0
20.01.2021 05:00:00 11,0 8,9 - - 0,0
20.01.2021 04:00:00 11,3 8,6 - - 0,0
20.01.2021 03:00:00 11,2 8,5 - - 0,0
20.01.2021 02:00:00 11,2 8,8 - - 0,0
20.01.2021 01:00:00 11,0 8,6 - - 0,0
20.01.2021 00:00:00 10,9 8,3 - - 0,0
19.01.2021 23:00:00 10,6 8,1 - - 0,0
19.01.2021 22:00:00 10,5 8,0 - - 0,0
19.01.2021 21:00:00 10,3 7,9 - - 0,0
19.01.2021 20:00:00 9,8 8,3 - - 0,4
19.01.2021 19:00:00 9,7 8,3 - - 0,0
19.01.2021 18:00:00 10,3 7,6 - - 0,0
19.01.2021 17:00:00 10,2 7,5 - - 0,0
19.01.2021 16:00:00 10,0 7,9 - - 0,2
19.01.2021 15:00:00 10,2 8,2 - - 0,0
19.01.2021 14:00:00 10,7 9,3 - - 0,0
19.01.2021 13:00:00 12,2 8,4 - - 0,0
19.01.2021 12:00:00 11,9 8,5 - - 0,0
19.01.2021 11:00:00 11,6 8,6 - - 0,0
19.01.2021 10:00:00 11,3 8,9 - - 0,0
19.01.2021 09:00:00 11,0 8,9 5,0 7,0 0,0
19.01.2021 08:00:00 11,1 9,1 - - 0,0
19.01.2021 07:00:00 10,9 9,1 - - 0,0
19.01.2021 06:00:00 10,9 9,4 - - 0,0
19.01.2021 05:00:00 10,3 9,5 - - 0,8
19.01.2021 04:00:00 9,8 9,0 - - 1,6
19.01.2021 03:00:00 9,3 8,7 - - 1,4
19.01.2021 02:00:00 8,9 8,1 - - 0,6
19.01.2021 01:00:00 8,2 7,6 - - 0,2
19.01.2021 00:00:00 7,9 7,1 - - 1,8
18.01.2021 23:00:00 7,9 6,5 - - 0,2
18.01.2021 22:00:00 7,5 5,7 - - 0,0
18.01.2021 21:00:00 6,2 4,1 - - 0,0
18.01.2021 20:00:00 6,4 3,7 - - 0,0
18.01.2021 19:00:00 6,3 3,4 - - 0,0
18.01.2021 18:00:00 5,8 3,5 - - 0,0
18.01.2021 17:00:00 5,6 3,5 - - 0,0
18.01.2021 16:00:00 5,6 3,4 - - 0,0
18.01.2021 15:00:00 5,7 3,6 - - 0,0
18.01.2021 14:00:00 5,6 3,5 - - 0,0
18.01.2021 13:00:00 5,4 3,4 - - 0,0
18.01.2021 12:00:00 5,3 3,2 - - 0,0
18.01.2021 11:00:00 4,8 3,2 - - 0,0
18.01.2021 10:00:00 4,4 2,8 - - 0,0
18.01.2021 09:00:00 3,7 2,6 4,5 7,0 0,0
18.01.2021 08:00:00 3,0 2,1 - - 0,0
18.01.2021 07:00:00 2,8 2,0 - - 0,0
18.01.2021 06:00:00 2,2 1,3 - - 0,0
18.01.2021 05:00:00 2,9 1,9 - - 0,0
18.01.2021 04:00:00 2,3 1,4 - - 0,0
18.01.2021 03:00:00 2,5 1,8 - - 0,0
18.01.2021 02:00:00 1,5 1,1 - - 0,0
18.01.2021 01:00:00 1,1 0,8 - - 0,0
18.01.2021 00:00:00 0,5 0,1 - - 0,0
17.01.2021 23:00:00 1,2 0,7 - - 0,2
17.01.2021 22:00:00 2,0 1,1 - - 0,0
17.01.2021 21:00:00 3,1 2,0 - - 0,0
17.01.2021 20:00:00 3,7 2,8 - - 0,0
17.01.2021 19:00:00 3,0 2,8 - - 0,0
17.01.2021 18:00:00 2,3 1,6 - - 0,0
17.01.2021 17:00:00 3,8 2,5 - - 0,0
17.01.2021 16:00:00 5,1 3,1 - - 0,0
17.01.2021 15:00:00 6,1 3,3 - - 0,0
17.01.2021 14:00:00 6,7 3,0 - - 0,0
17.01.2021 13:00:00 7,0 2,8 - - 0,0
17.01.2021 12:00:00 6,7 3,0 - - 0,0
17.01.2021 11:00:00 5,2 2,6 - - 0,0
17.01.2021 10:00:00 4,1 2,4 - - 0,0
17.01.2021 09:00:00 2,0 1,2 4,5 7,0 0,0
17.01.2021 08:00:00 2,9 1,6 - - 0,0
17.01.2021 07:00:00 4,1 2,5 - - 0,0
17.01.2021 06:00:00 3,8 2,6 - - 0,0
17.01.2021 05:00:00 4,1 3,0 - - 0,0
17.01.2021 04:00:00 3,4 2,5 - - 0,0
17.01.2021 03:00:00 3,4 2,3 - - 0,0
17.01.2021 02:00:00 3,8 2,5 - - 0,0
17.01.2021 01:00:00 3,7 2,8 - - 0,0
17.01.2021 00:00:00 4,4 3,4 - - 0,0
16.01.2021 23:00:00 4,8 3,7 - - 0,0
16.01.2021 22:00:00 4,9 4,2 - - 0,0
16.01.2021 21:00:00 5,7 4,8 - - 0,0
16.01.2021 20:00:00 5,5 5,4 - - 0,0
16.01.2021 19:00:00 5,0 5,0 - - 0,0
16.01.2021 18:00:00 2,3 2,2 - - 0,0
16.01.2021 17:00:00 2,2 2,0 - - 0,0
16.01.2021 16:00:00 2,7 2,5 - - 0,0
16.01.2021 15:00:00 3,4 3,3 - - 0,4
16.01.2021 14:00:00 2,5 2,3 - - 1,2
16.01.2021 13:00:00 2,2 1,9 - - 1,6
16.01.2021 12:00:00 1,7 1,3 - - 2,4
16.01.2021 11:00:00 1,6 1,1 - - 2,2
16.01.2021 10:00:00 1,0 0,6 - - 3,6
16.01.2021 09:00:00 0,6 0,1 4,7 7,2 0,0
16.01.2021 08:00:00 0,4 -0,1 - - 0,0
16.01.2021 07:00:00 0,6 -0,1 - - 0,0
16.01.2021 06:00:00 0,9 -0,4 - - 0,0
16.01.2021 05:00:00 1,9 -1,0 - - 0,0
16.01.2021 04:00:00 1,4 -0,4 - - 0,0
16.01.2021 03:00:00 0,7 0,0 - - 0,0
16.01.2021 02:00:00 -0,5 -0,6 - - 0,0
16.01.2021 01:00:00 -2,0 -2,2 - - 0,0
16.01.2021 00:00:00 -2,3 -2,5 - - 0,0
15.01.2021 23:00:00 -2,5 -2,8 - - 0,0
15.01.2021 22:00:00 -2,0 -2,3 - - 0,0
15.01.2021 21:00:00 -1,4 -1,6 - - 0,0
15.01.2021 20:00:00 -0,9 -1,1 - - 0,0
15.01.2021 19:00:00 0,7 0,5 - - 0,0
15.01.2021 18:00:00 1,3 1,1 - - 0,0
15.01.2021 17:00:00 1,8 1,5 - - 0,0
15.01.2021 16:00:00 2,4 1,9 - - 0,0
15.01.2021 15:00:00 2,6 2,1 - - 0,0
15.01.2021 14:00:00 2,8 2,5 - - 0,0
15.01.2021 13:00:00 2,8 2,7 - - 0,0
15.01.2021 12:00:00 2,2 2,2 - - 0,0
15.01.2021 11:00:00 1,5 1,5 - - 0,0
15.01.2021 10:00:00 0,8 0,8 - - 0,0
15.01.2021 09:00:00 0,3 0,3 4,7 7,2 0,0
15.01.2021 08:00:00 0,2 0,2 - - 0,0
15.01.2021 07:00:00 0,1 0,1 - - 0,0
15.01.2021 06:00:00 0,0 -0,1 - - 0,0
15.01.2021 05:00:00 0,0 -0,1 - - 0,0
15.01.2021 04:00:00 -0,3 -0,3 - - 0,0

tt = temperature
td = dewpoint
tt -20cm = temperature -20cm
tt -100cm = temperature -100cm
rr = precipitation

Next stations